Tracking 17141 objects as of 6-July-2015
HD Live streaming from Space Station

ARIANE 44LP DEB

Track ARIANE 44LP DEB now!
10-day predictions
ARIANE 44LP DEB is classified as:


NORAD ID: 27662
Int'l Code: 1991-015N
Perigee: 367.6 km
Apogee: 24,287.0 km
Inclination: 6.0 °
Period: 424.1 minutes
Semi major axis: 18698 km
RCS: 0.2322 m2 (medium)
Launch date: March 2, 1991
Source: France (FR)

Note: This is SATELLITE DEBRIS
Your satellite tracking list
Your tracking list is empty





NASA's NSSDC Master Catalog

Two Line Element Set (TLE):
1 27662U 91015N   15185.44463355  .00011957  00000-0  99673-2 0  9992
2 27662 006.0212 275.2782 6396137 171.5778 209.2878 03.39546464188120

Source of the keplerian elements: AFSPC

N2YO: 238